Vertical_Velocity
-1 -1 -2 -2 -1 -1 1 1 -0 -0 -1 -1 -2 -1 1 3 -0 -2 1 -1 -2 -1 -1 -0 1 0 1 1 -2 -1 -1 -1 -3 -2 -1 -1 -4 2 3 -0 5 11 -1 -3 -1
0 -1 -2 -0 0 -0 -2 -2 -1 0 1 2 1 -1 -2 2 0 -1 -2 -2 -2 -1 -1 3 2 -0 0 -0 -2 -1 -3 -2 -4 -3 -5 -4 1 -5 -4 8 3 2 11 8 9
-1 -0 -1 -0 -0 -1 0 1 -1 -2 -2 -2 -2 -1 0 -1 3 -1 -2 -4 -2 -2 -3 -3 -4 -2 -1 0 -2 -3 -2 -0 -1 1 -2 -3 -1 -4 -5 -5 1 -8 15 9 4
1 -0 -1 -2 -2 -1 -1 -1 -0 1 -1 -2 -1 -2 -4 1 -4 -2 -2 -3 -3 -5 -2 -3 -1 -2 -3 -4 -2 -0 -1 -3 -2 -2 -3 -5 -4 -4 -3 -4 -7 -7 -7 5 8
-1 -0 -2 -2 -0 -1 -2 -4 -3 -2 3 -3 1 -2 -0 -2 2 -2 -1 -2 -2 1 0 -1 -2 -5 -4 -4 -3 -2 -3 -3 -3 -7 -4 -1 0 -5 -7 -7 -8 -6 -1 -2 1
0 -1 -1 3 1 -2 1 -1 1 2 -5 0 -3 2 -2 0 -4 -0 -1 -2 -4 -3 -1 -1 -6 -3 -5 -3 -3 -2 -0 -4 -6 -4 -7 1 -2 -3 -4 -3 -4 -7 -5 2 -2
4 0 -2 -3 -1 1 -2 3 -3 3 0 -0 -1 1 2 -1 -2 -2 -1 1 -2 -3 -4 -3 -2 1 -1 -4 -4 -3 -4 -2 -3 -4 -6 -4 -7 -1 -1 -4 -4 -7 -3 -2 -1
-5 -2 4 2 -1 1 1 -6 4 -3 -2 1 -1 0 0 4 0 -4 -1 -1 -1 -2 -3 -2 -1 -4 -6 -2 -2 -4 -1 -7 -1 -4 -5 8 -12 0 -4 1 -2 -5 -5 -5 3
2 1 -5 -2 1 1 -0 2 -4 -1 1 -1 -2 -1 1 2 1 0 0 -0 -2 -2 -2 -3 -5 -6 2 -6 -3 -4 -6 -3 -14 -3 -1 2 -8 1 -10 -4 -3 -4 -4 -5 -3
-1 -5 -5 -0 -1 -4 -3 -0 0 0 -1 1 -1 1 -3 -1 -0 -1 1 -1 -2 -0 -2 -2 -4 -0 -2 -6 -5 -5 -6 -3 -0 1 2 5 -2 7 -8 -0 -4 -3 -3 -4 -5
-1 -3 -2 -1 -3 -2 0 -1 -1 -5 -0 3 2 -1 -1 -3 -3 1 0 -2 0 -3 -2 -2 -4 -5 -5 -2 1 0 1 -2 3 4 -9 -0 -10 1 -5 -6 -4 -1 -3 -3 -3
-2 -1 -0 -1 -1 2 -4 -1 2 3 -5 -2 2 -2 -2 -1 -2 -1 -3 3 -1 -0 -1 -2 -2 -3 -3 -1 1 0 -2 -3 -8 4 -1 3 -3 -0 0 -3 -0 -5 -4 -5 -3
-2 -1 1 2 -3 -2 2 -4 3 2 -2 2 -3 1 -1 -1 -0 -1 -2 2 -0 -2 -1 -1 -0 -2 -2 -3 -8 3 -4 -2 5 -7 3 -1 -6 -3 1 -2 -4 -3 -1 -1 -6
-2 -1 -3 -0 5 -4 -2 -5 -2 -2 -2 1 -2 -1 -0 -1 -1 -2 -1 -2 -0 -2 -1 -2 -2 -2 -2 -1 -3 -3 -1 2 -1 -2 -6 7 -8 -4 -3 -5 4 0 -1 -1 -1
-3 -3 -1 -2 -2 0 1 1 -1 -1 -3 -0 -1 2 -0 -1 -2 -0 -2 -2 -1 -1 0 -1 -1 -0 -0 -3 -2 -4 -3 0 2 3 -1 -1 6 -4 -2 0 -1 1 0 -0 -1
-1 -3 -1 0 1 0 -2 1 4 -0 -4 1 -0 -1 3 -1 -1 0 -1 -0 -0 -1 -0 1 0 -2 -1 -2 -1 -8 0 1 2 0 -1 0 2 -7 -1 -5 -3 -1 1 -1 -0
0 -0 -1 -1 -0 0 -0 -2 2 -1 1 1 1 -0 -1 -0 -0 -0 -0 1 -3 -4 -2 0 0 -1 -2 -1 -3 -0 -11 -6 -8 -5 -8 3 1 -10 -1 -2 -1 -6 2 0 -1
-1 -2 1 -1 -2 -1 -1 -0 3 2 1 2 -2 0 -3 0 -1 -2 -2 -1 -3 -3 -2 -2 -4 -2 -1 -2 -1 -4 -5 -4 -2 -2 -5 -6 -5 -11 -2 -0 -3 0 4 1 2
-3 -1 -1 -1 0 -3 -0 -0 -1 2 2 -1 -3 -1 0 -2 1 -3 1 -1 -1 -2 -6 -2 -3 -1 0 -1 -1 1 -2 -0 -0 -1 2 -2 -1 -6 -3 -3 -1 -2 3 2 -1
-1 -1 -2 -0 -1 -3 -1 0 0 2 0 -0 -2 2 -0 -1 -2 -2 -2 -1 -2 -0 -2 -1 -5 -0 0 -0 -1 -2 -1 -2 -1 -5 -3 -7 -3 -10 -1 -2 -0 -4 -0 2 -1
-3 -4 0 -0 0 2 -9 1 -3 -0 1 -3 -0 -2 1 0 -1 -1 -1 -3 -1 -1 -3 0 -0 -3 2 0 0 -1 -1 -1 -1 -1 -5 -2 -16 -4 -0 1 0 -3 -0 -1 -1
-2 -3 1 -2 -4 0 -0 3 0 3 3 -4 2 1 2 -1 -2 -1 -2 -1 -1 -0 -2 -0 0 -4 0 -0 -1 -1 -1 -0 1 -2 1 -0 -29 2 2 4 1 0 1 4 0
-6 -6 0 0 -1 -0 1 2 -0 -0 2 3 -0 5 -0 -0 -2 2 -1 0 1 -1 -1 -3 -1 -5 -1 -2 0 -1 2 3 -0 2 -4 -3 -20 2 1 2 6 -2 2 3 3
-3 -4 -6 1 2 -1 -3 -1 -1 0 -2 1 -0 1 -1 -0 -2 -3 2 -2 2 0 -0 -0 -1 -1 -8 6 6 1 4 4 3 0 1 -18 -19 1 -1 0 -0 1 2 3 1
-2 -1 0 -3 3 4 1 3 -5 -3 3 0 0 4 -0 -0 0 -1 2 2 -1 1 -0 -1 -4 -1 0 1 6 1 1 2 -2 6 -6 -8 -7 -0 2 -2 1 -0 -2 1 1
-2 -0 -4 -0 2 0 3 1 1 1 0 -0 4 2 -1 -3 2 2 4 2 7 0 1 -1 -2 -0 -13 0 1 -4 4 1 2 1 -9 5 -20 8 3 1 2 2 1 -0 3
-4 -4 2 2 -1 -2 0 2 2 1 -3 1 3 2 -1 4 -1 -3 0 1 3 0 2 1 0 -1 -9 -3 -1 -3 -2 -1 -2 1 4 -1 -1 1 -3 1 1 1 1 -0 1
Height
3150 3148 3144 3141 3138 3135 3132 3130 3128 3126 3124 3121 3119 3117 3115 3113 3110 3109 3110 3108 3105 3102 3100 3098 3096 3094 3092 3091 3090 3089 3089 3086 3084 3083 3082 3080 3080 3080 3079 3076 3080 3080 3074 3069 3075
3150 3147 3144 3141 3138 3135 3132 3129 3125 3122 3121 3119 3117 3115 3112 3110 3108 3107 3105 3102 3100 3099 3097 3095 3093 3090 3089 3087 3086 3085 3084 3081 3079 3077 3074 3073 3072 3067 3068 3066 3066 3069 3064 3060 3059
3149 3146 3143 3140 3136 3133 3130 3128 3125 3122 3118 3116 3115 3112 3111 3109 3108 3105 3103 3100 3098 3096 3092 3090 3087 3085 3084 3082 3081 3079 3079 3078 3076 3073 3069 3063 3060 3057 3051 3050 3050 3051 3056 3051 3049
3149 3146 3142 3138 3135 3132 3128 3125 3121 3119 3116 3112 3110 3109 3108 3106 3108 3103 3100 3098 3095 3092 3090 3087 3084 3082 3079 3076 3076 3075 3073 3070 3068 3065 3059 3054 3048 3044 3044 3036 3038 3038 3039 3038 3035
3146 3143 3140 3136 3133 3130 3127 3124 3120 3116 3113 3111 3107 3105 3104 3104 3103 3100 3096 3094 3093 3090 3087 3083 3081 3078 3075 3073 3070 3068 3066 3063 3060 3052 3047 3044 3041 3038 3033 3033 3032 3031 3029 3026 3019
3143 3140 3137 3133 3130 3126 3123 3121 3117 3114 3110 3108 3105 3102 3101 3101 3100 3098 3095 3092 3089 3085 3082 3079 3075 3073 3070 3068 3067 3063 3060 3055 3050 3047 3043 3039 3035 3032 3027 3027 3026 3023 3022 3017 3011
3142 3138 3133 3130 3127 3123 3120 3116 3113 3110 3106 3103 3101 3099 3097 3098 3096 3094 3092 3089 3085 3082 3079 3075 3072 3070 3065 3061 3059 3055 3051 3050 3047 3040 3036 3031 3027 3025 3021 3020 3018 3017 3014 3010 3004
3138 3135 3132 3128 3124 3120 3117 3113 3110 3106 3103 3100 3098 3096 3095 3093 3093 3090 3088 3085 3082 3078 3075 3071 3068 3064 3060 3058 3054 3052 3048 3041 3041 3035 3033 3030 3022 3020 3016 3015 3013 3011 3008 3005 3000
3137 3132 3128 3125 3121 3118 3114 3110 3106 3103 3100 3098 3096 3093 3092 3091 3089 3086 3084 3082 3078 3075 3072 3068 3063 3060 3061 3054 3051 3046 3042 3039 3032 3031 3028 3026 3018 3015 3013 3010 3008 3005 3003 2998 2994
3134 3130 3126 3122 3117 3113 3110 3108 3103 3100 3097 3094 3092 3094 3091 3089 3087 3082 3081 3078 3075 3073 3069 3066 3062 3060 3055 3051 3052 3045 3039 3035 3033 3028 3023 3019 3015 3013 3009 3006 3004 3000 2997 2992 2987
3131 3126 3122 3117 3114 3109 3106 3102 3104 3098 3094 3091 3088 3087 3085 3086 3084 3081 3078 3074 3072 3070 3066 3064 3062 3056 3055 3052 3049 3046 3041 3035 3030 3026 3017 3015 3012 3010 3006 3004 3001 2998 2992 2986 2982
3128 3124 3119 3114 3109 3105 3102 3098 3096 3095 3089 3085 3083 3082 3083 3083 3081 3078 3077 3074 3070 3067 3063 3062 3059 3057 3054 3053 3049 3044 3038 3030 3024 3023 3018 3013 3010 3006 3005 3002 2999 2993 2987 2980 2975
3125 3120 3115 3110 3106 3102 3098 3096 3091 3088 3085 3080 3079 3080 3081 3081 3077 3076 3074 3070 3066 3064 3062 3059 3059 3055 3053 3048 3045 3041 3034 3029 3024 3019 3017 3012 3006 3004 3003 3000 2996 2991 2984 2978 2971
3121 3116 3111 3106 3104 3099 3096 3093 3090 3086 3081 3081 3079 3080 3080 3077 3076 3073 3069 3069 3064 3062 3059 3057 3056 3053 3051 3047 3041 3036 3033 3026 3022 3019 3017 3013 3009 3002 3000 2998 2995 2988 2982 2975 2968
3117 3112 3107 3102 3100 3097 3094 3090 3088 3085 3083 3082 3080 3079 3078 3077 3075 3071 3068 3065 3062 3060 3060 3057 3052 3050 3049 3045 3040 3037 3027 3020 3020 3018 3017 3013 3010 2999 2997 2995 2989 2985 2979 2972 2965
3113 3108 3103 3101 3097 3094 3090 3086 3085 3086 3081 3080 3079 3077 3075 3072 3071 3067 3066 3063 3059 3057 3055 3052 3049 3048 3047 3044 3039 3032 3025 3018 3017 3016 3017 3011 3010 2998 2995 2991 2986 2981 2975 2968 2962
3109 3104 3099 3097 3094 3090 3087 3087 3085 3080 3082 3081 3078 3075 3071 3069 3068 3065 3063 3061 3059 3057 3052 3049 3046 3046 3044 3042 3036 3033 3023 3019 3020 3020 3017 3008 3006 2997 2993 2989 2984 2977 2969 2963 2958
3106 3100 3096 3093 3091 3089 3087 3086 3084 3080 3079 3079 3076 3072 3071 3069 3067 3064 3060 3058 3057 3056 3052 3048 3043 3044 3042 3040 3037 3032 3030 3033 3039 3032 3015 3004 3001 2995 2992 2987 2982 2976 2967 2959 2955
3104 3099 3094 3091 3089 3088 3086 3084 3082 3081 3081 3078 3075 3071 3071 3070 3068 3063 3059 3058 3057 3056 3056 3051 3044 3041 3040 3038 3038 3033 3032 3031 3028 3025 3020 3004 2997 2992 2989 2985 2979 2972 2964 2957 2953
3104 3098 3094 3090 3088 3087 3084 3083 3082 3081 3079 3077 3076 3073 3070 3068 3066 3062 3058 3057 3056 3055 3053 3050 3044 3038 3038 3037 3036 3035 3034 3030 3028 3032 3028 3004 2996 2989 2986 2981 2975 2968 2961 2954 2949
3102 3097 3093 3090 3087 3085 3085 3083 3081 3080 3078 3076 3074 3072 3069 3067 3065 3062 3060 3058 3055 3052 3050 3046 3045 3040 3036 3034 3033 3032 3030 3030 3029 3027 3030 3026 2991 2987 2982 2976 2971 2965 2959 2952 2946
3102 3098 3094 3090 3088 3085 3083 3081 3079 3077 3075 3073 3071 3069 3067 3066 3062 3060 3059 3058 3054 3051 3047 3045 3040 3035 3033 3030 3029 3028 3026 3026 3025 3023 3021 3018 2992 2983 2980 2974 2968 2962 2957 2951 2944
3101 3097 3094 3089 3087 3084 3080 3078 3076 3074 3073 3071 3069 3067 3065 3064 3063 3058 3056 3055 3052 3049 3046 3044 3039 3034 3028 3030 3026 3023 3021 3021 3021 3019 3013 3015 2989 2984 2980 2974 2968 2960 2955 2948 2942
3098 3095 3092 3088 3086 3082 3079 3076 3074 3071 3070 3068 3067 3065 3063 3062 3061 3058 3054 3051 3049 3046 3042 3040 3036 3034 3030 3026 3024 3019 3017 3016 3016 3014 3004 2995 2983 2982 2979 2972 2966 2959 2952 2946 2939
3096 3094 3091 3088 3085 3080 3077 3074 3072 3069 3068 3066 3063 3062 3061 3058 3056 3054 3051 3048 3045 3041 3039 3037 3031 3027 3022 3018 3014 3010 3009 3007 3004 3002 3000 2986 2982 2978 2973 2968 2962 2956 2950 2944 2938
3097 3093 3090 3087 3083 3079 3076 3072 3069 3067 3066 3063 3061 3058 3057 3055 3054 3050 3047 3044 3040 3037 3035 3032 3028 3021 3013 3011 3008 3002 3000 2999 2997 2994 2989 2985 2979 2978 2972 2966 2960 2954 2948 2942 2937
3094 3091 3088 3084 3080 3077 3074 3071 3067 3064 3062 3060 3057 3055 3052 3051 3049 3046 3043 3040 3037 3034 3032 3028 3025 3021 3010 3008 3001 2995 2994 2993 2992 2989 2987 2982 2979 2975 2970 2964 2958 2953 2947 2941 2936